Weather History for KMDQ - June, 2013

Change the Weather History Date:

Monday, June 24, 2013

  Actual Average (KHSV) Record (KHSV)
Temperature  
Mean Temperature 76 °F 79 °F  
Max Temperature 87 °F 90 °F 105 °F (1930)
Min Temperature 66 °F 69 °F 51 °F (1915)
Degree Days  
Heating Degree Days 0 0  
Month to date heating degree days 0  
Since 1 June heating degree days 0  
Since 1 July heating degree days 3001  
Cooling Degree Days 12 14  
Month to date cooling degree days 292  
Year to date cooling degree days 555  
Since 1 June cooling degree days 292  
Growing Degree Days 26 (Base 50)    
Moisture  
Dew Point 64 °F    
Average Humidity 69    
Maximum Humidity 88    
Minimum Humidity 38    
Precipitation  
Precipitation 0.00 in 0.15 in 2.25 in (1894)
Month to date precipitation 3.41  
Year to date precipitation 27.78  
Snow  
Snow 0.00 in - - ()
Month to date snowfall  
Since 1 June snowfall  
Since 1 July snowfall  
Snow Depth -    
Sea Level Pressure  
Sea Level Pressure 30.15 in    
Wind  
Wind Speed 2 mph (SE)    
Max Wind Speed 10 mph    
Max Gust Speed 21 mph    
Visibility 9 miles    
Events Thunderstorm    
T = Trace of Precipitation, MM = Missing Value Source: NWS Daily Summary

Daily Weather History Graph

Daily Weather History Graph

Search for Another Location

Airport or City:

Trip Planner

Search our weather history database for the weather conditions in past years. The results will help you decide how hot, cold, wet, or windy it might be!

Date:

Astronomy

Jun. 24, 2013 Rise Set
Actual Time 5:33 AM CDT 8:03 PM CDT
Civil Twilight 5:04 AM CDT 8:33 PM CDT
Nautical Twilight 4:27 AM CDT 9:09 PM CDT
Astronomical Twilight 3:47 AM CDT 9:50 PM CDT
Moon 9:10 PM CDT (6/24) 6:56 AM CDT (6/24)
Length of Visible Light 15h 29m
Length of Day
14h 29m
Full, 98% of the Moon is Illuminated
Jun 24
Full
Jun 29
Last Quarter
Jul 8
New
Jul 15
First Quarter
Jul 22
Full

Hourly Weather History & Observations

Time (CDT) Temp. Heat Index Dew Point Humidity Pressure Visibility Wind Dir Wind Speed Gust Speed Precip Events Conditions
12:15 AM 69.8 °F - 64.4 °F 83% 30.14 in 10.0 mi Calm Calm - N/A   Clear
12:35 AM 69.8 °F - 64.4 °F 83% 30.14 in 10.0 mi Calm Calm - N/A   Clear
12:55 AM 69.8 °F - 64.4 °F 83% 30.14 in 10.0 mi Calm Calm - N/A   Clear
1:15 AM 68.0 °F - 64.4 °F 88% 30.14 in 7.0 mi Calm Calm - N/A   Clear
1:35 AM 68.0 °F - 64.4 °F 88% 30.13 in 10.0 mi Calm Calm - N/A   Clear
1:55 AM 68.0 °F - 64.4 °F 88% 30.13 in 10.0 mi Calm Calm - N/A   Clear
2:15 AM 68.0 °F - 64.4 °F 88% 30.13 in 7.0 mi Calm Calm - N/A   Clear
2:35 AM 68.0 °F - 62.6 °F 83% 30.14 in 10.0 mi Calm Calm - N/A   Clear
2:55 AM 68.0 °F - 64.4 °F 88% 30.14 in 7.0 mi Calm Calm - N/A   Clear
3:15 AM 66.2 °F - 62.6 °F 88% 30.14 in 7.0 mi Calm Calm - N/A   Clear
3:35 AM 68.0 °F - 62.6 °F 83% 30.14 in 5.0 mi Calm Calm - N/A   Clear
3:55 AM 68.0 °F - 64.4 °F 88% 30.14 in 7.0 mi Calm Calm - N/A   Clear
4:15 AM 66.2 °F - 62.6 °F 88% 30.14 in 10.0 mi Calm Calm - N/A   Clear
4:35 AM 66.2 °F - 62.6 °F 88% 30.15 in 7.0 mi Calm Calm - N/A   Clear
4:55 AM 68.0 °F - 64.4 °F 88% 30.15 in 10.0 mi Calm Calm - N/A   Clear
5:15 AM 68.0 °F - 62.6 °F 83% 30.15 in 5.0 mi Calm Calm - N/A   Clear
5:35 AM 68.0 °F - 62.6 °F 83% 30.16 in 5.0 mi Calm Calm - N/A   Clear
5:55 AM 66.2 °F - 62.6 °F 88% 30.17 in 7.0 mi Calm Calm - N/A   Clear
6:15 AM 68.0 °F - 62.6 °F 83% 30.17 in 5.0 mi Calm Calm - N/A   Clear
6:35 AM 69.8 °F - 64.4 °F 83% 30.19 in 10.0 mi Calm Calm - N/A   Scattered Clouds
6:55 AM 69.8 °F - 66.2 °F 88% 30.19 in 7.0 mi ESE 4.6 mph - N/A   Scattered Clouds
7:15 AM 71.6 °F - 66.2 °F 83% 30.19 in 10.0 mi SE 4.6 mph - N/A   Mostly Cloudy
7:35 AM 73.4 °F - 66.2 °F 78% 30.20 in 10.0 mi Calm Calm - N/A   Mostly Cloudy
7:55 AM 73.4 °F - 68.0 °F 83% 30.21 in 10.0 mi SE 5.8 mph - N/A   Overcast
8:15 AM 73.4 °F - 68.0 °F 83% 30.21 in 10.0 mi SSE 4.6 mph - N/A   Overcast
8:35 AM 73.4 °F - 66.2 °F 78% 30.22 in 7.0 mi SSE 5.8 mph - N/A   Overcast
8:55 AM 73.4 °F - 66.2 °F 78% 30.23 in 7.0 mi SSE 4.6 mph - N/A   Overcast
9:15 AM 73.4 °F - 66.2 °F 78% 30.22 in 7.0 mi SE 6.9 mph - N/A   Overcast
9:35 AM 77.0 °F - 66.2 °F 69% 30.22 in 10.0 mi SSE 3.5 mph - N/A   Overcast
9:55 AM 77.0 °F - 66.2 °F 69% 30.22 in 10.0 mi Calm Calm - N/A   Overcast
10:15 AM 77.0 °F - 64.4 °F 65% 30.22 in 10.0 mi Calm Calm - N/A   Overcast
10:35 AM 78.8 °F - 66.2 °F 65% 30.21 in 10.0 mi East 3.5 mph - N/A   Overcast
10:55 AM 78.8 °F - 64.4 °F 61% 30.21 in 10.0 mi SSW 5.8 mph - N/A   Overcast
11:15 AM 80.6 °F 82.3 °F 64.4 °F 58% 30.21 in 10.0 mi East 4.6 mph - N/A   Mostly Cloudy
11:35 AM 82.4 °F 83.9 °F 64.4 °F 54% 30.20 in 10.0 mi ESE 4.6 mph - N/A   Clear
11:55 AM 82.4 °F 83.9 °F 64.4 °F 54% 30.19 in 10.0 mi Calm Calm - N/A   Clear
12:15 PM 82.4 °F 83.9 °F 64.4 °F 54% 30.19 in 10.0 mi SE 3.5 mph - N/A   Scattered Clouds
12:35 PM 82.4 °F 83.4 °F 62.6 °F 51% 30.18 in 10.0 mi Calm Calm - N/A   Scattered Clouds
12:55 PM 82.4 °F 83.4 °F 62.6 °F 51% 30.17 in 10.0 mi Calm Calm - N/A   Scattered Clouds
1:15 PM 84.2 °F 84.4 °F 60.8 °F 45% 30.16 in 10.0 mi SE 4.6 mph - N/A   Scattered Clouds
1:35 PM 86.0 °F 86.1 °F 60.8 °F 43% 30.16 in 10.0 mi SSE 3.5 mph - N/A   Scattered Clouds
1:55 PM 84.2 °F 84.4 °F 60.8 °F 45% 30.14 in 10.0 mi ESE 3.5 mph - N/A   Scattered Clouds
2:15 PM 86.0 °F 86.1 °F 60.8 °F 43% 30.14 in 10.0 mi SE 3.5 mph - N/A   Scattered Clouds
2:35 PM 87.8 °F 87.6 °F 60.8 °F 40% 30.13 in 10.0 mi SSE 5.8 mph - N/A   Mostly Cloudy
2:55 PM 86.0 °F 86.1 °F 60.8 °F 43% 30.13 in 10.0 mi South 3.5 mph - N/A   Mostly Cloudy
3:15 PM 87.8 °F 87.1 °F 59.0 °F 38% 30.12 in 10.0 mi SE 3.5 mph - N/A   Mostly Cloudy
3:35 PM 87.8 °F 87.6 °F 60.8 °F 40% 30.11 in 10.0 mi East 5.8 mph - N/A   Mostly Cloudy
3:55 PM 86.0 °F 86.1 °F 60.8 °F 43% 30.11 in 10.0 mi South 8.1 mph - N/A   Scattered Clouds
4:15 PM 87.8 °F 87.1 °F 59.0 °F 38% 30.10 in 10.0 mi SE 4.6 mph - N/A   Clear
4:35 PM 86.0 °F 86.1 °F 60.8 °F 43% 30.09 in 10.0 mi ESE 4.6 mph - N/A   Scattered Clouds
4:55 PM 82.4 °F 83.9 °F 64.4 °F 54% 30.10 in 10.0 mi SSE 9.2 mph 20.7 mph N/A   Overcast
5:15 PM 82.4 °F 83.4 °F 62.6 °F 51% 30.10 in 10.0 mi South 10.4 mph - N/A   Scattered Clouds
5:35 PM 82.4 °F 83.4 °F 62.6 °F 51% 30.10 in 10.0 mi South 9.2 mph - N/A   Scattered Clouds
5:55 PM 82.4 °F 83.4 °F 62.6 °F 51% 30.10 in 10.0 mi SSE 4.6 mph - N/A   Scattered Clouds
6:15 PM 82.4 °F 83.4 °F 62.6 °F 51% 30.11 in 10.0 mi SSE 6.9 mph - N/A   Scattered Clouds
6:35 PM 80.6 °F 82.3 °F 64.4 °F 58% 30.11 in 10.0 mi SE 4.6 mph - N/A   Clear
6:55 PM 80.6 °F 82.3 °F 64.4 °F 58% 30.11 in 10.0 mi SSE 3.5 mph - N/A   Clear
7:15 PM 80.6 °F 82.3 °F 64.4 °F 58% 30.11 in 10.0 mi SSE 5.8 mph - N/A   Clear
7:35 PM 80.6 °F 82.3 °F 64.4 °F 58% 30.10 in 10.0 mi SE 3.5 mph - N/A   Clear
7:55 PM 78.8 °F - 66.2 °F 65% 30.11 in 10.0 mi Calm Calm - N/A   Clear
8:15 PM 78.8 °F - 68.0 °F 69% 30.11 in 10.0 mi ESE 3.5 mph - N/A   Clear
8:35 PM 78.8 °F - 68.0 °F 69% 30.11 in 10.0 mi Calm Calm - N/A   Clear
8:55 PM 77.0 °F - 68.0 °F 74% 30.11 in 10.0 mi Calm Calm - N/A   Clear
9:15 PM 77.0 °F - 68.0 °F 74% 30.12 in 10.0 mi Calm Calm - N/A   Clear
9:35 PM 77.0 °F - 68.0 °F 74% 30.13 in 10.0 mi Calm Calm - N/A Thunderstorm Clear
9:55 PM 77.0 °F - 68.0 °F 74% 30.14 in 10.0 mi SE 4.6 mph - N/A   Clear
10:15 PM 77.0 °F - 68.0 °F 74% 30.14 in 10.0 mi SE 4.6 mph - N/A   Scattered Clouds
10:35 PM 75.2 °F - 68.0 °F 78% 30.13 in 10.0 mi Calm Calm - N/A   Scattered Clouds
10:55 PM 75.2 °F - 68.0 °F 78% 30.13 in 10.0 mi Calm Calm - N/A   Clear
11:15 PM 73.4 °F - 68.0 °F 83% 30.14 in 10.0 mi Calm Calm - N/A   Clear
11:35 PM 73.4 °F - 68.0 °F 83% 30.13 in 10.0 mi Calm Calm - N/A   Clear
11:55 PM 73.4 °F - 68.0 °F 83% 30.14 in 10.0 mi Calm Calm - N/A   Clear